,,Stat5,,Stat1,,Stat2,,Stat3,,Stat4,,Wind1,,Wind1,
time,status,PA1M_AVG,status,PR1M_SUM,status,RH1M_AVG,status,SR1M_AVG,status,TA1M_AVG,status,W1dAve1m,status,W1sAve1m,
2001-08-11, 00:00:00,VALID,919.752,VALID,0,VALID,93.1209,VALID,-0.0509425,VALID,18.9538,VALID,153,VALID,0.237981,
2001-08-11, 00:01:00,VALID,919.736,VALID,0,VALID,93.332,VALID,-0.0169808,VALID,18.9114,VALID,151,VALID,0.335938,
2001-08-11, 00:02:00,VALID,919.694,VALID,0,VALID,93.6282,VALID,-0.0339617,VALID,18.8925,VALID,131,VALID,0.594934,
2001-08-11, 00:03:00,VALID,919.672,VALID,0,VALID,94.0886,VALID,-0.0509425,VALID,18.8632,VALID,122,VALID,0.731419,
2001-08-11, 00:04:00,VALID,919.648,VALID,0,VALID,94.3988,VALID,-0.0169808,VALID,18.8406,VALID,106,VALID,0.542535,
2001-08-11, 00:05:00,VALID,919.621,VALID,0,VALID,94.3467,VALID,-0.0169808,VALID,18.8341,VALID,112,VALID,0.378289,
2001-08-11, 00:06:00,VALID,919.605,VALID,0,VALID,94.3149,VALID,-0.0339617,VALID,18.8018,VALID,115,VALID,0.365709,
2001-08-11, 00:07:00,VALID,919.577,VALID,0,VALID,94.6252,VALID,-0.0169808,VALID,18.7891,VALID,118,VALID,0.448661,
2001-08-11, 00:08:00,VALID,919.544,VALID,0,VALID,94.6354,VALID,-0.0169808,VALID,18.7797,VALID,125,VALID,0.476151,
2001-08-11, 00:09:00,VALID,919.52,VALID,0,VALID,94.8337,VALID,-0.0339617,VALID,18.7861,VALID,125,VALID,0.625845,
2001-08-11, 00:10:00,VALID,919.504,VALID,0,VALID,94.9507,VALID,-0.0339617,VALID,18.8053,VALID,124,VALID,0.53125,
2001-08-11, 00:11:00,VALID,919.487,VALID,0,VALID,94.9075,VALID,-0.0339617,VALID,18.8341,VALID,110,VALID,0.597551,
2001-08-11, 00:12:00,VALID,919.491,VALID,0,VALID,94.4268,VALID,-0.0509425,VALID,18.8537,VALID,102,VALID,0.323884,
2001-08-11, 00:13:00,VALID,919.478,VALID,0,VALID,93.4108,VALID,-0.0509425,VALID,18.7857,VALID,90,VALID,0.36859,
2001-08-11, 00:14:00,VALID,919.467,VALID,0,VALID,93.6143,VALID,-0.0509425,VALID,18.7407,VALID,87,VALID,0.223722,
2001-08-11, 00:15:00,VALID,919.473,VALID,0,VALID,93.8228,VALID,-0.0339617,VALID,18.7086,VALID,86,VALID,0.0107996,
2001-08-11, 00:16:00,VALID,919.478,VALID,0,VALID,93.7923,VALID,-0.0169808,VALID,18.6595,VALID,58,VALID,0.369721,
2001-08-11, 00:17:00,VALID,919.481,VALID,0,VALID,94.4179,VALID,-0.0509425,VALID,18.6733,VALID,58,VALID,0.378167,
2001-08-11, 00:18:00,VALID,919.473,VALID,0,VALID,94.8007,VALID,-0.0509425,VALID,18.6696,VALID,60,VALID,0.165541,
2001-08-11, 00:19:00,VALID,919.467,VALID,0,VALID,94.8744,VALID,0,VALID,18.6955,VALID,60,VALID,0.156901,
2001-08-11, 00:20:00,VALID,919.471,VALID,0,VALID,94.6989,VALID,-0.0169808,VALID,18.6955,VALID,61,VALID,0.160857,
2001-08-11, 00:21:00,VALID,919.456,VALID,0,VALID,94.6087,VALID,-0.0509425,VALID,18.6858,VALID,62,VALID,0,
2001-08-11, 00:22:00,VALID,919.453,VALID,0,VALID,94.657,VALID,-0.0679233,VALID,18.6796,VALID,62,VALID,0.0734375,
2001-08-11, 00:23:00,VALID,919.456,VALID,0,VALID,94.7879,VALID,-0.0169808,VALID,18.6667,VALID,127,VALID,0.440584,
2001-08-11, 00:24:00,VALID,919.44,VALID,0,VALID,94.7867,VALID,-0.0169808,VALID,18.6503,VALID,148,VALID,0.46516,
2001-08-11, 00:25:00,VALID,919.446,VALID,0,VALID,94.8261,VALID,-0.0509425,VALID,18.644,VALID,154,VALID,0.253289,
2001-08-11, 00:26:00,VALID,919.435,VALID,0,VALID,95.0092,VALID,-0.0679233,VALID,18.6408,VALID,172,VALID,0.511191,
2001-08-11, 00:27:00,VALID,919.419,VALID,0,VALID,95.2368,VALID,-0.0509425,VALID,18.6667,VALID,179,VALID,0.502455,
2001-08-11, 00:28:00,VALID,919.367,VALID,0,VALID,95.4352,VALID,-0.0169808,VALID,18.6729,VALID,180,VALID,0.311899,
2001-08-11, 00:29:00,VALID,919.325,VALID,0,VALID,95.4708,VALID,-0.0509425,VALID,18.6895,VALID,180,VALID,0.141098,
2001-08-11, 00:30:00,VALID,919.282,VALID,0,VALID,95.4772,VALID,-0.0509425,VALID,18.6895,VALID,180,VALID,0.100873,
2001-08-11, 00:31:00,VALID,919.24,VALID,0,VALID,95.4034,VALID,-0.0339617,VALID,18.6865,VALID,180,VALID,0.0154139,
2001-08-11, 00:32:00,VALID,919.229,VALID,0,VALID,95.4098,VALID,-0.0339617,VALID,18.6763,VALID,180,VALID,0.0363176,
2001-08-11, 00:33:00,VALID,919.224,VALID,0,VALID,95.2813,VALID,-0.0339617,VALID,18.6768,VALID,180,VALID,0.00907939,
2001-08-11, 00:34:00,VALID,919.201,VALID,0,VALID,94.8414,VALID,-0.0339617,VALID,18.6445,VALID,180,VALID,0.0978733,
2001-08-11, 00:35:00,VALID,919.184,VALID,0,VALID,95.0588,VALID,-0.0509425,VALID,18.6184,VALID,180,VALID,0.332131,
2001-08-11, 00:36:00,VALID,919.155,VALID,0,VALID,95.7277,VALID,0,VALID,18.654,VALID,180,VALID,0.138514,
2001-08-11, 00:37:00,VALID,919.138,VALID,0,VALID,95.3767,VALID,-0.0339617,VALID,18.6507,VALID,180,VALID,0,
2001-08-11, 00:38:00,VALID,919.116,VALID,0,VALID,94.9062,VALID,-0.0509425,VALID,18.5961,VALID,180,VALID,0,
2001-08-11, 00:39:00,VALID,919.104,VALID,0,VALID,95.0969,VALID,-0.0169808,VALID,18.5506,VALID,180,VALID,0,
2001-08-11, 00:40:00,VALID,919.073,VALID,0,VALID,95.439,VALID,0,VALID,18.5601,VALID,180,VALID,0,
2001-08-11, 00:41:00,VALID,919.038,VALID,0,VALID,95.4238,VALID,-0.0509425,VALID,18.5571,VALID,180,VALID,0,
2001-08-11, 00:42:00,VALID,919.009,VALID,0,VALID,95.2559,VALID,-0.0509425,VALID,18.5345,VALID,180,VALID,0.0127232,
2001-08-11, 00:43:00,VALID,918.984,VALID,0,VALID,94.5298,VALID,-0.0339617,VALID,18.4376,VALID,124,VALID,0.316907,
2001-08-11, 00:44:00,VALID,918.986,VALID,0,VALID,93.9258,VALID,-0.0509425,VALID,18.302,VALID,40,VALID,0.568182,
2001-08-11, 00:45:00,VALID,918.976,VALID,0,VALID,94.3734,VALID,-0.0169808,VALID,18.1959,VALID,39,VALID,0.639936,
2001-08-11, 00:46:00,VALID,918.99,VALID,0,VALID,94.9024,VALID,0,VALID,18.1472,VALID,27,VALID,0.686022,
2001-08-11, 00:47:00,VALID,919.011,VALID,0,VALID,95.631,VALID,-0.0169808,VALID,18.1214,VALID,14,VALID,0.404772,
2001-08-11, 00:48:00,VALID,919.023,VALID,0,VALID,96.1498,VALID,-0.0169808,VALID,18.138,VALID,11,VALID,0.537796,
2001-08-11, 00:49:00,VALID,919.042,VALID,0,VALID,96.4728,VALID,0,VALID,18.1795,VALID,6,VALID,0.544922,
2001-08-11, 00:50:00,VALID,919.071,VALID,0,VALID,96.2834,VALID,-0.0339617,VALID,18.183,VALID,5,VALID,0.747997,
2001-08-11, 00:51:00,VALID,919.073,VALID,0,VALID,96.1384,VALID,-0.0169808,VALID,18.1604,VALID,9,VALID,0.774071,
2001-08-11, 00:52:00,VALID,919.072,VALID,0,VALID,96.291,VALID,-0.0339617,VALID,18.1606,VALID,9,VALID,0.832589,
2001-08-11, 00:53:00,VALID,919.058,VALID,0,VALID,96.4779,VALID,0,VALID,18.183,VALID,8,VALID,1.0736,
2001-08-11, 00:54:00,VALID,919.037,VALID,0,VALID,96.7348,VALID,-0.0509425,VALID,18.2379,VALID,358,VALID,1.03653,
2001-08-11, 00:55:00,VALID,919.011,VALID,0,VALID,96.5402,VALID,-0.0339617,VALID,18.3253,VALID,1,VALID,0.818051,
2001-08-11, 00:56:00,VALID,918.999,VALID,0,VALID,95.8179,VALID,0,VALID,18.3089,VALID,359,VALID,0.690456,
2001-08-11, 00:57:00,VALID,918.958,VALID,0,VALID,96.2452,VALID,-0.0509425,VALID,18.3998,VALID,344,VALID,0.772991,
2001-08-11, 00:58:00,VALID,918.929,VALID,0,VALID,95.9489,VALID,-0.0509425,VALID,18.4711,VALID,336,VALID,0.330929,
2001-08-11, 00:59:00,VALID,918.905,VALID,0,VALID,95.5357,VALID,0.0509425,VALID,18.4957,VALID,297,VALID,0.0293561,
2001-08-11, 01:00:00,VALID,918.912,VALID,0,VALID,94.9749,VALID,0.0509425,VALID,18.4821,VALID,297,VALID,0,
2001-08-11, 01:01:00,VALID,918.934,VALID,0,VALID,94.5629,VALID,0.0849042,VALID,18.4494,VALID,297,VALID,0,
2001-08-11, 01:02:00,VALID,918.971,VALID,0,VALID,94.6188,VALID,0.0849042,VALID,18.43,VALID,297,VALID,0,
2001-08-11, 01:03:00,VALID,919.017,VALID,0,VALID,94.2145,VALID,0.0679233,VALID,18.4178,VALID,297,VALID,0,
2001-08-11, 01:04:00,VALID,919.071,VALID,0,VALID,94.1076,VALID,0.0339617,VALID,18.3589,VALID,297,VALID,0,
2001-08-11, 01:05:00,VALID,919.096,VALID,0,VALID,94.8426,VALID,0.101885,VALID,18.3557,VALID,297,VALID,0.220353,
2001-08-11, 01:06:00,VALID,919.108,VALID,0,VALID,95.219,VALID,0.101885,VALID,18.3818,VALID,336,VALID,0.468961,
2001-08-11, 01:07:00,VALID,919.102,VALID,0,VALID,95.598,VALID,0.0849042,VALID,18.3714,VALID,94,VALID,0.735045,
2001-08-11, 01:08:00,VALID,919.106,VALID,0,VALID,96.0278,VALID,0.0849042,VALID,18.4205,VALID,83,VALID,0.643709,
2001-08-11, 01:09:00,VALID,919.103,VALID,0,VALID,96.1155,VALID,0.0679233,VALID,18.4466,VALID,76,VALID,0.539696,
2001-08-11, 01:10:00,VALID,919.099,VALID,0,VALID,95.9655,VALID,0.0679233,VALID,18.4727,VALID,55,VALID,0.655428,
2001-08-11, 01:11:00,VALID,919.069,VALID,0,VALID,95.1783,VALID,0.101885,VALID,18.4268,VALID,48,VALID,0.560177,
2001-08-11, 01:12:00,VALID,919.04,VALID,0,VALID,94.5095,VALID,0.101885,VALID,18.3271,VALID,32,VALID,0.602455,
2001-08-11, 01:13:00,VALID,919.007,VALID,0,VALID,95.2279,VALID,0.0509425,VALID,18.2658,VALID,23,VALID,0.908854,
2001-08-11, 01:14:00,VALID,918.974,VALID,0,VALID,96.1867,VALID,-0.0339617,VALID,18.3442,VALID,15,VALID,0.851563,
2001-08-11, 01:15:00,VALID,918.935,VALID,0,VALID,95.8243,VALID,-0.0509425,VALID,18.3896,VALID,6,VALID,0.627068,
2001-08-11, 01:16:00,VALID,918.923,VALID,0,VALID,95.6514,VALID,-0.0679233,VALID,18.3899,VALID,352,VALID,0.936233,
2001-08-11, 01:17:00,VALID,918.925,VALID,0,VALID,95.907,VALID,-0.0679233,VALID,18.4515,VALID,353,VALID,0.676098,
2001-08-11, 01:18:00,VALID,918.933,VALID,0,VALID,95.7048,VALID,-0.0679233,VALID,18.5027,VALID,351,VALID,0.569257,
2001-08-11, 01:19:00,VALID,918.932,VALID,0,VALID,95.4784,VALID,-0.0849042,VALID,18.5347,VALID,320,VALID,0.422526,
2001-08-11, 01:20:00,VALID,918.931,VALID,0,VALID,95.1745,VALID,-0.0849042,VALID,18.5679,VALID,267,VALID,0.0218349,
2001-08-11, 01:21:00,VALID,918.937,VALID,0,VALID,94.9049,VALID,-0.0849042,VALID,18.5739,VALID,210,VALID,0.132179,
2001-08-11, 01:22:00,VALID,918.941,VALID,0,VALID,94.3836,VALID,-0.0509425,VALID,18.561,VALID,211,VALID,0.0303571,
2001-08-11, 01:23:00,VALID,918.93,VALID,0,VALID,93.9169,VALID,-0.0169808,VALID,18.4927,VALID,211,VALID,0.000411184,
2001-08-11, 01:24:00,VALID,918.911,VALID,0,VALID,93.6359,VALID,-0.0339617,VALID,18.4607,VALID,344,VALID,0.10663,
2001-08-11, 01:25:00,VALID,918.893,VALID,0,VALID,93.6321,VALID,-0.0679233,VALID,18.4251,VALID,2,VALID,0.00801809,
2001-08-11, 01:26:00,VALID,918.869,VALID,0,VALID,94.1661,VALID,-0.0679233,VALID,18.4157,VALID,23,VALID,0.0637669,
2001-08-11, 01:27:00,VALID,918.846,VALID,0,VALID,94.5069,VALID,-0.0509425,VALID,18.4155,VALID,31,VALID,0.145982,
2001-08-11, 01:28:00,VALID,918.834,VALID,0,VALID,94.9647,VALID,-0.0679233,VALID,18.4482,VALID,72,VALID,0.267829,
2001-08-11, 01:29:00,VALID,918.837,VALID,0,VALID,95.0931,VALID,-0.0339617,VALID,18.457,VALID,69,VALID,0.220644,
2001-08-11, 01:30:00,VALID,918.828,VALID,0,VALID,94.9037,VALID,-0.0679233,VALID,18.4574,VALID,57,VALID,0.382353,
2001-08-11, 01:31:00,VALID,918.819,VALID,0,VALID,94.8986,VALID,-0.0849042,VALID,18.4607,VALID,39,VALID,0.457137,
2001-08-11, 01:32:00,VALID,918.81,VALID,0,VALID,93.3816,VALID,-0.0509425,VALID,18.3703,VALID,39,VALID,0.554476,
2001-08-11, 01:33:00,VALID,918.813,VALID,0,VALID,93.3231,VALID,0,VALID,18.215,VALID,38,VALID,0.595228,
2001-08-11, 01:34:00,VALID,918.821,VALID,0,VALID,94.0987,VALID,-0.0509425,VALID,18.1375,VALID,36,VALID,0.505208,
2001-08-11, 01:35:00,VALID,918.832,VALID,0,VALID,95.0575,VALID,-0.0509425,VALID,18.1119,VALID,41,VALID,0.503806,
2001-08-11, 01:36:00,VALID,918.841,VALID,0,VALID,95.8968,VALID,-0.0849042,VALID,18.1477,VALID,50,VALID,0.404139,
2001-08-11, 01:37:00,VALID,918.842,VALID,0,VALID,96.2897,VALID,-0.0339617,VALID,18.2125,VALID,50,VALID,0.249107,
2001-08-11, 01:38:00,VALID,918.841,VALID,0,VALID,96.1498,VALID,-0.0509425,VALID,18.248,VALID,50,VALID,0.00699013,
2001-08-11, 01:39:00,VALID,918.847,VALID,0,VALID,96.1346,VALID,-0.0509425,VALID,18.2577,VALID,56,VALID,0.051098,
2001-08-11, 01:40:00,VALID,918.824,VALID,0,VALID,95.9515,VALID,-0.101885,VALID,18.2805,VALID,85,VALID,0.371711,
2001-08-11, 01:41:00,VALID,918.811,VALID,0,VALID,95.5662,VALID,-0.0849042,VALID,18.2738,VALID,119,VALID,0.290541,
2001-08-11, 01:42:00,VALID,918.777,VALID,0,VALID,95.2788,VALID,-0.0509425,VALID,18.2448,VALID,156,VALID,0.203125,
2001-08-11, 01:43:00,VALID,918.765,VALID,0,VALID,95.2953,VALID,-0.0169808,VALID,18.2157,VALID,166,VALID,0.0370593,
2001-08-11, 01:44:00,VALID,918.744,VALID,0,VALID,95.3792,VALID,-0.0679233,VALID,18.1959,VALID,166,VALID,0.00094697,
2001-08-11, 01:45:00,VALID,918.711,VALID,0,VALID,95.6908,VALID,-0.0679233,VALID,18.209,VALID,166,VALID,0.306756,
2001-08-11, 01:46:00,VALID,918.692,VALID,0,VALID,95.7976,VALID,-0.0849042,VALID,18.2321,VALID,166,VALID,0.244299,
2001-08-11, 01:47:00,VALID,918.671,VALID,0,VALID,96.0214,VALID,-0.0679233,VALID,18.2547,VALID,165,VALID,0.162584,
2001-08-11, 01:48:00,VALID,918.636,VALID,0,VALID,96.0354,VALID,-0.0849042,VALID,18.2704,VALID,165,VALID,0,
2001-08-11, 01:49:00,VALID,918.621,VALID,0,VALID,96.0163,VALID,-0.0679233,VALID,18.2768,VALID,165,VALID,0,
2001-08-11, 01:50:00,VALID,918.62,VALID,0,VALID,96.2172,VALID,-0.0849042,VALID,18.3061,VALID,163,VALID,0.207732,
2001-08-11, 01:51:00,VALID,918.623,VALID,0,VALID,96.0799,VALID,-0.0679233,VALID,18.3315,VALID,152,VALID,0.144637,
2001-08-11, 01:52:00,VALID,918.613,VALID,0,VALID,95.6781,VALID,-0.0679233,VALID,18.3223,VALID,150,VALID,0.000446429,
2001-08-11, 01:53:00,VALID,918.62,VALID,0,VALID,95.7188,VALID,-0.0509425,VALID,18.3094,VALID,116,VALID,0.328536,
2001-08-11, 01:54:00,VALID,918.602,VALID,0,VALID,95.9349,VALID,-0.0339617,VALID,18.3096,VALID,104,VALID,0.533995,
2001-08-11, 01:55:00,VALID,918.604,VALID,0,VALID,95.9235,VALID,-0.0339617,VALID,18.29,VALID,101,VALID,0.543997,
2001-08-11, 01:56:00,VALID,918.592,VALID,0,VALID,96.0227,VALID,-0.0339617,VALID,18.2831,VALID,95,VALID,0.453125,
2001-08-11, 01:57:00,VALID,918.586,VALID,0,VALID,95.8701,VALID,-0.0509425,VALID,18.2865,VALID,96,VALID,0,
2001-08-11, 01:58:00,VALID,918.585,VALID,0,VALID,95.7709,VALID,-0.0339617,VALID,18.2798,VALID,95,VALID,0,
2001-08-11, 01:59:00,VALID,918.575,VALID,0,VALID,95.5992,VALID,-0.0339617,VALID,18.2736,VALID,96,VALID,0,
2001-08-11, 02:00:00,VALID,918.555,VALID,0,VALID,95.4899,VALID,-0.0679233,VALID,18.2674,VALID,96,VALID,0,
2001-08-11, 02:01:00,VALID,918.523,VALID,0,VALID,95.4962,VALID,-0.0339617,VALID,18.2773,VALID,96,VALID,0,
2001-08-11, 02:02:00,VALID,918.501,VALID,0,VALID,95.5471,VALID,-0.0679233,VALID,18.2798,VALID,33,VALID,0.179265,
2001-08-11, 02:03:00,VALID,918.482,VALID,0,VALID,95.5471,VALID,-0.101885,VALID,18.322,VALID,11,VALID,0.0981841,
2001-08-11, 02:04:00,VALID,918.452,VALID,0,VALID,95.0944,VALID,-0.0509425,VALID,18.3417,VALID,360,VALID,0.0203993,
2001-08-11, 02:05:00,VALID,918.443,VALID,0,VALID,94.6137,VALID,-0.0509425,VALID,18.3059,VALID,309,VALID,0.191306,
2001-08-11, 02:06:00,VALID,918.428,VALID,0,VALID,94.718,VALID,-0.0339617,VALID,18.296,VALID,278,VALID,0.377534,
2001-08-11, 02:07:00,VALID,918.421,VALID,0,VALID,95.5026,VALID,-0.0679233,VALID,18.3483,VALID,273,VALID,0.368304,
2001-08-11, 02:08:00,VALID,918.396,VALID,0,VALID,95.7417,VALID,-0.0339617,VALID,18.4055,VALID,273,VALID,0.13898,
2001-08-11, 02:09:00,VALID,918.383,VALID,0,VALID,95.7366,VALID,-0.0509425,VALID,18.4544,VALID,311,VALID,0.211571,
2001-08-11, 02:10:00,VALID,918.392,VALID,0,VALID,94.8464,VALID,-0.0339617,VALID,18.4445,VALID,26,VALID,0.132401,
2001-08-11, 02:11:00,VALID,918.398,VALID,0,VALID,94.6684,VALID,-0.0679233,VALID,18.3961,VALID,8,VALID,0.130068,
2001-08-11, 02:12:00,VALID,918.406,VALID,0,VALID,95.2432,VALID,-0.0679233,VALID,18.4385,VALID,329,VALID,0.133482,
2001-08-11, 02:13:00,VALID,918.398,VALID,0,VALID,95.2839,VALID,-0.0679233,VALID,18.4538,VALID,244,VALID,0.254006,
2001-08-11, 02:14:00,VALID,918.41,VALID,0,VALID,95.1783,VALID,-0.0679233,VALID,18.4671,VALID,193,VALID,0.454309,
2001-08-11, 02:15:00,VALID,918.392,VALID,0,VALID,95.1147,VALID,-0.0339617,VALID,18.4544,VALID,174,VALID,0.50046,
2001-08-11, 02:16:00,VALID,918.372,VALID,0,VALID,95.1478,VALID,-0.0679233,VALID,18.4547,VALID,174,VALID,0.419764,
2001-08-11, 02:17:00,VALID,918.37,VALID,0,VALID,95.1707,VALID,-0.0849042,VALID,18.4381,VALID,174,VALID,0.244299,
2001-08-11, 02:18:00,VALID,918.363,VALID,0,VALID,95.1796,VALID,-0.0339617,VALID,18.4452,VALID,174,VALID,0.38598,
2001-08-11, 02:19:00,VALID,918.35,VALID,0,VALID,95.1198,VALID,-0.0849042,VALID,18.4318,VALID,174,VALID,0.373481,
2001-08-11, 02:20:00,VALID,918.331,VALID,0,VALID,95.0779,VALID,-0.0679233,VALID,18.4222,VALID,174,VALID,0.111979,
2001-08-11, 02:21:00,VALID,918.32,VALID,0,VALID,95.0677,VALID,-0.101885,VALID,18.4219,VALID,174,VALID,0.0707348,
2001-08-11, 02:22:00,VALID,918.295,VALID,0,VALID,94.9634,VALID,-0.0849042,VALID,18.4157,VALID,174,VALID,0.10625,
2001-08-11, 02:23:00,VALID,918.291,VALID,0,VALID,95.1059,VALID,-0.101885,VALID,18.4192,VALID,174,VALID,0.349301,
2001-08-11, 02:24:00,VALID,918.285,VALID,0,VALID,95.1732,VALID,-0.101885,VALID,18.4383,VALID,173,VALID,0.309755,
2001-08-11, 02:25:00,VALID,918.305,VALID,0,VALID,94.9965,VALID,-0.0849042,VALID,18.4547,VALID,173,VALID,0.328947,
2001-08-11, 02:26:00,VALID,918.297,VALID,0,VALID,94.9812,VALID,-0.0849042,VALID,18.4515,VALID,163,VALID,0.59016,
2001-08-11, 02:27:00,VALID,918.275,VALID,0,VALID,94.7409,VALID,-0.0849042,VALID,18.4321,VALID,142,VALID,0.44933,
2001-08-11, 02:28:00,VALID,918.259,VALID,0,VALID,94.7511,VALID,-0.0679233,VALID,18.4226,VALID,142,VALID,0.570112,
2001-08-11, 02:29:00,VALID,918.245,VALID,0,VALID,94.98,VALID,-0.101885,VALID,18.4132,VALID,151,VALID,0.958097,
2001-08-11, 02:30:00,VALID,918.242,VALID,0,VALID,95.2737,VALID,-0.101885,VALID,18.4097,VALID,152,VALID,1.05423,
2001-08-11, 02:31:00,VALID,918.239,VALID,0,VALID,95.4199,VALID,-0.0849042,VALID,18.4256,VALID,150,VALID,1.20207,
2001-08-11, 02:32:00,VALID,918.236,VALID,0,VALID,95.659,VALID,-0.0849042,VALID,18.4323,VALID,158,VALID,1.31271,
2001-08-11, 02:33:00,VALID,918.233,VALID,0,VALID,95.9858,VALID,-0.101885,VALID,18.4641,VALID,153,VALID,0.984375,
2001-08-11, 02:34:00,VALID,918.239,VALID,0,VALID,95.9934,VALID,-0.101885,VALID,18.5027,VALID,140,VALID,0.617188,
2001-08-11, 02:35:00,VALID,918.242,VALID,0,VALID,95.4594,VALID,-0.0849042,VALID,18.516,VALID,57,VALID,0.420473,
2001-08-11, 02:36:00,VALID,918.228,VALID,0,VALID,95.1618,VALID,-0.0679233,VALID,18.4872,VALID,68,VALID,0.281461,
2001-08-11, 02:37:00,VALID,918.237,VALID,0,VALID,95.3614,VALID,-0.0849042,VALID,18.4676,VALID,129,VALID,0.580134,
2001-08-11, 02:38:00,VALID,918.255,VALID,0,VALID,95.584,VALID,-0.0509425,VALID,18.4644,VALID,139,VALID,0.478413,
2001-08-11, 02:39:00,VALID,918.265,VALID,0,VALID,95.6208,VALID,-0.0849042,VALID,18.4773,VALID,136,VALID,0.234375,
2001-08-11, 02:40:00,VALID,918.271,VALID,0,VALID,95.631,VALID,-0.0679233,VALID,18.4607,VALID,156,VALID,0.121299,
2001-08-11, 02:41:00,VALID,918.281,VALID,0,VALID,95.6654,VALID,-0.0509425,VALID,18.4604,VALID,157,VALID,0,
2001-08-11, 02:42:00,VALID,918.274,VALID,0,VALID,95.5992,VALID,-0.0509425,VALID,18.4572,VALID,157,VALID,0,
2001-08-11, 02:43:00,VALID,918.295,VALID,0,VALID,95.3589,VALID,-0.0679233,VALID,18.445,VALID,157,VALID,0,
2001-08-11, 02:44:00,VALID,918.305,VALID,0,VALID,95.289,VALID,-0.0849042,VALID,18.4185,VALID,157,VALID,0,
2001-08-11, 02:45:00,VALID,918.302,VALID,0,VALID,95.4899,VALID,-0.0849042,VALID,18.4122,VALID,139,VALID,0.015625,
2001-08-11, 02:46:00,VALID,918.311,VALID,0,VALID,95.6704,VALID,-0.101885,VALID,18.4192,VALID,136,VALID,0.0301943,
2001-08-11, 02:47:00,VALID,918.316,VALID,0,VALID,95.6908,VALID,-0.101885,VALID,18.4284,VALID,152,VALID,0.160473,
2001-08-11, 02:48:00,VALID,918.304,VALID,0,VALID,95.7645,VALID,-0.0849042,VALID,18.484,VALID,152,VALID,0,
2001-08-11, 02:49:00,VALID,918.301,VALID,0,VALID,95.6844,VALID,-0.101885,VALID,18.5354,VALID,152,VALID,0,
2001-08-11, 02:50:00,VALID,918.305,VALID,0,VALID,95.4594,VALID,-0.101885,VALID,18.561,VALID,152,VALID,0,
2001-08-11, 02:51:00,VALID,918.296,VALID,0,VALID,95.289,VALID,-0.0679233,VALID,18.5608,VALID,152,VALID,0,
2001-08-11, 02:52:00,VALID,918.297,VALID,0,VALID,95.1262,VALID,-0.0849042,VALID,18.5772,VALID,152,VALID,0,
2001-08-11, 02:53:00,VALID,918.279,VALID,0,VALID,95.0283,VALID,-0.0679233,VALID,18.5869,VALID,166,VALID,0.281044,
2001-08-11, 02:54:00,VALID,918.288,VALID,0,VALID,94.9278,VALID,-0.0509425,VALID,18.6028,VALID,172,VALID,0.456081,
2001-08-11, 02:55:00,VALID,918.304,VALID,0,VALID,94.6926,VALID,-0.101885,VALID,18.6258,VALID,172,VALID,0.464021,
2001-08-11, 02:56:00,VALID,918.329,VALID,0,VALID,94.5069,VALID,-0.101885,VALID,18.6254,VALID,172,VALID,0.419975,
2001-08-11, 02:57:00,VALID,918.338,VALID,0,VALID,94.5082,VALID,-0.0509425,VALID,18.6159,VALID,173,VALID,0.5375,
2001-08-11, 02:58:00,VALID,918.354,VALID,0,VALID,94.4179,VALID,-0.101885,VALID,18.5933,VALID,162,VALID,0.560096,
2001-08-11, 02:59:00,VALID,918.344,VALID,0,VALID,94.4853,VALID,-0.0679233,VALID,18.5509,VALID,151,VALID,0.380682,
2001-08-11, 03:00:00,VALID,918.334,VALID,0,VALID,94.5603,VALID,-0.0679233,VALID,18.5218,VALID,148,VALID,0.200368,
2001-08-11, 03:01:00,VALID,918.346,VALID,0,VALID,94.5578,VALID,-0.0679233,VALID,18.5089,VALID,146,VALID,0.0238598,
2001-08-11, 03:02:00,VALID,918.373,VALID,0,VALID,94.5158,VALID,-0.0509425,VALID,18.4699,VALID,145,VALID,0.0986064,
2001-08-11, 03:03:00,VALID,918.373,VALID,0,VALID,94.8884,VALID,-0.0849042,VALID,18.4607,VALID,129,VALID,0.454181,
2001-08-11, 03:04:00,VALID,918.38,VALID,0,VALID,95.2076,VALID,-0.0509425,VALID,18.4835,VALID,121,VALID,0.459635,
2001-08-11, 03:05:00,VALID,918.377,VALID,0,VALID,95.0969,VALID,-0.0849042,VALID,18.4932,VALID,119,VALID,0.433093,
2001-08-11, 03:06:00,VALID,918.384,VALID,0,VALID,94.7752,VALID,-0.0509425,VALID,18.4997,VALID,95,VALID,0.20228,
2001-08-11, 03:07:00,VALID,918.376,VALID,0,VALID,94.1178,VALID,-0.0679233,VALID,18.4217,VALID,83,VALID,0.299777,
2001-08-11, 03:08:00,VALID,918.355,VALID,0,VALID,94.8223,VALID,-0.0849042,VALID,18.37,VALID,83,VALID,0.128701,
2001-08-11, 03:09:00,VALID,918.342,VALID,0,VALID,95.2661,VALID,-0.0679233,VALID,18.3899,VALID,66,VALID,0,
2001-08-11, 03:10:00,VALID,918.336,VALID,0,VALID,95.1834,VALID,-0.0679233,VALID,18.3504,VALID,57,VALID,0,
2001-08-11, 03:11:00,VALID,918.308,VALID,0,VALID,95.3195,VALID,-0.101885,VALID,18.3114,VALID,39,VALID,0,
2001-08-11, 03:12:00,VALID,918.284,VALID,0,VALID,95.7124,VALID,-0.0679233,VALID,18.3091,VALID,37,VALID,0,
2001-08-11, 03:13:00,VALID,918.269,VALID,0,VALID,95.8536,VALID,-0.0339617,VALID,18.302,VALID,36,VALID,0.185497,
2001-08-11, 03:14:00,VALID,918.238,VALID,0,VALID,95.6781,VALID,-0.0339617,VALID,18.2764,VALID,32,VALID,0.315341,
2001-08-11, 03:15:00,VALID,918.216,VALID,0,VALID,95.7493,VALID,-0.0339617,VALID,18.2372,VALID,17,VALID,0.555607,
2001-08-11, 03:16:00,VALID,918.206,VALID,0,VALID,96.01,VALID,-0.0509425,VALID,18.2243,VALID,3,VALID,0.377956,
2001-08-11, 03:17:00,VALID,918.179,VALID,0,VALID,95.9642,VALID,-0.0339617,VALID,18.2183,VALID,360,VALID,0.412796,
2001-08-11, 03:18:00,VALID,918.161,VALID,0,VALID,96.1842,VALID,-0.0169808,VALID,18.2215,VALID,352,VALID,0.262035,
2001-08-11, 03:19:00,VALID,918.146,VALID,0,VALID,96.4105,VALID,-0.0339617,VALID,18.2923,VALID,332,VALID,0.101997,
2001-08-11, 03:20:00,VALID,918.128,VALID,0,VALID,96.3062,VALID,-0.0339617,VALID,18.3703,VALID,307,VALID,0.128205,
2001-08-11, 03:21:00,VALID,918.126,VALID,0,VALID,96.0303,VALID,-0.0509425,VALID,18.4607,VALID,279,VALID,0.197002,
2001-08-11, 03:22:00,VALID,918.149,VALID,0,VALID,95.5827,VALID,-0.0339617,VALID,18.5352,VALID,277,VALID,0.145759,
2001-08-11, 03:23:00,VALID,918.16,VALID,0,VALID,95.2241,VALID,-0.0169808,VALID,18.5672,VALID,277,VALID,0.00411184,
2001-08-11, 03:24:00,VALID,918.165,VALID,0,VALID,95.0702,VALID,-0.0169808,VALID,18.6028,VALID,277,VALID,0,
2001-08-11, 03:25:00,VALID,918.161,VALID,0,VALID,94.8668,VALID,0,VALID,18.6249,VALID,278,VALID,0,
2001-08-11, 03:26:00,VALID,918.154,VALID,0,VALID,94.1318,VALID,-0.0339617,VALID,18.5862,VALID,60,VALID,0.0275493,
2001-08-11, 03:27:00,VALID,918.167,VALID,0,VALID,94.2348,VALID,-0.0169808,VALID,18.5799,VALID,60,VALID,0,
2001-08-11, 03:28:00,VALID,918.168,VALID,0,VALID,94.2793,VALID,-0.0339617,VALID,18.5735,VALID,60,VALID,0,
2001-08-11, 03:29:00,VALID,918.179,VALID,0,VALID,94.1356,VALID,-0.0169808,VALID,18.5603,VALID,60,VALID,0,
2001-08-11, 03:30:00,VALID,918.185,VALID,0,VALID,93.7478,VALID,-0.0339617,VALID,18.5054,VALID,60,VALID,0.170726,